Weather History for Pinedale, WY

Change the Weather History Date:

Monday, August 26, 2013

  Actual Average (KBPI) Record (KBPI)
Temperature  
Mean Temperature 60 °F 57 °F  
Max Temperature 73 °F 76 °F 88 °F (2010)
Min Temperature 46 °F 38 °F 19 °F (1992)
Degree Days  
Heating Degree Days 6 8  
Month to date heating degree days 132  
Since 1 June heating degree days 554  
Since 1 July heating degree days 249  
Cooling Degree Days 0 0  
Month to date cooling degree days 12  
Year to date cooling degree days 36  
Since 1 June cooling degree days 36  
Growing Degree Days 10 (Base 50)    
Moisture  
Dew Point 44 °F    
Average Humidity 60    
Maximum Humidity 93    
Minimum Humidity 31    
Precipitation  
Precipitation 0.00 in 0.01 in 0.25 in (1998)
Month to date precipitation 0.57  
Year to date precipitation 4.54  
Sea Level Pressure  
Sea Level Pressure 30.31 in    
Wind  
Wind Speed 4 mph (WSW)    
Max Wind Speed 15 mph    
Max Gust Speed 25 mph    
Visibility 10 miles    
Events Rain , Thunderstorm    
T = Trace of Precipitation, MM = Missing Value Source: NWS Daily Summary

Daily Weather History Graph

Daily Weather History Graph

Search for Another Location

Airport:

Trip Planner

Search our weather history database for the weather conditions in past years. The results will help you decide how hot, cold, wet, or windy it might be!

Date:

Astronomy

Aug. 26, 2013 Rise Set
Actual Time 6:37 AM MDT 8:03 PM MDT
Civil Twilight 6:08 AM MDT 8:32 PM MDT
Nautical Twilight 5:32 AM MDT 9:08 PM MDT
Astronomical Twilight 4:54 AM MDT 9:45 PM MDT
Moon 11:06 PM MDT (8/26) 12:52 PM MDT (8/26)
Length of Visible Light 14h 24m
Length of Day
13h 25m
Waning Gibbous, 66% of the Moon is Illuminated
Aug 26
Waning Gibbous
Aug 28
Last Quarter
Sep 5
New
Sep 12
First Quarter
Sep 19
Full

Hourly Weather History & Observations

Time (MDT) Temp. Windchill Dew Point Humidity Pressure Visibility Wind Dir Wind Speed Gust Speed Precip Events Conditions
12:15 AM 57.2 °F - 44.6 °F 63% 30.30 in 10.0 mi ESE 6.9 mph - N/A   Mostly Cloudy
12:35 AM 57.2 °F - 42.8 °F 59% 30.29 in 10.0 mi ESE 4.6 mph - N/A   Mostly Cloudy
12:55 AM 55.4 °F - 42.8 °F 63% 30.29 in 10.0 mi East 4.6 mph - N/A   Scattered Clouds
1:15 AM 57.2 °F - 44.6 °F 63% 30.30 in 10.0 mi Calm Calm - N/A   Clear
1:35 AM 55.4 °F - 42.8 °F 63% 30.30 in 10.0 mi ESE 3.5 mph - N/A   Clear
1:55 AM 55.4 °F - 44.6 °F 67% 30.29 in 10.0 mi Calm Calm - N/A   Clear
2:15 AM 55.4 °F - 44.6 °F 67% 30.29 in 10.0 mi Calm Calm - N/A   Clear
2:35 AM 53.6 °F - 44.6 °F 72% 30.28 in 10.0 mi Calm Calm - N/A   Clear
2:55 AM 51.8 °F - 42.8 °F 71% 30.27 in 10.0 mi Calm Calm - N/A   Clear
3:15 AM 51.8 °F - 42.8 °F 71% 30.28 in 10.0 mi Calm Calm - N/A   Clear
3:35 AM 51.8 °F - 42.8 °F 71% 30.28 in 10.0 mi WNW 3.5 mph - N/A   Clear
3:55 AM 50.0 °F - 42.8 °F 76% 30.29 in 10.0 mi NW 3.5 mph - N/A   Clear
4:15 AM 51.8 °F - 42.8 °F 71% 30.29 in 10.0 mi North 3.5 mph - N/A   Clear
4:35 AM 50.0 °F - 42.8 °F 76% 30.29 in 10.0 mi Calm Calm - N/A   Clear
4:55 AM 50.0 °F - 42.8 °F 76% 30.29 in 10.0 mi West 4.6 mph - N/A   Clear
5:15 AM 50.0 °F - 42.8 °F 76% 30.30 in 10.0 mi WNW 3.5 mph - N/A   Clear
5:35 AM 50.0 °F - 42.8 °F 76% 30.30 in 10.0 mi Calm Calm - N/A   Clear
5:55 AM 46.4 °F 44.3 °F 44.6 °F 93% 30.31 in 10.0 mi West 4.6 mph - N/A   Clear
6:15 AM 46.4 °F 43.5 °F 44.6 °F 93% 30.31 in 10.0 mi WNW 5.8 mph - N/A   Clear
6:35 AM 46.4 °F 45.2 °F 42.8 °F 87% 30.32 in 10.0 mi WNW 3.5 mph - N/A   Clear
6:55 AM 48.2 °F - 42.8 °F 82% 30.32 in 10.0 mi NW 4.6 mph - N/A   Clear
7:15 AM 48.2 °F - 44.6 °F 87% 30.33 in 10.0 mi West 3.5 mph - N/A   Clear
7:35 AM 50.0 °F - 44.6 °F 82% 30.32 in 10.0 mi Calm Calm - N/A   Clear
7:55 AM 51.8 °F - 44.6 °F 76% 30.34 in 10.0 mi West 4.6 mph - N/A   Clear
8:15 AM 51.8 °F - 44.6 °F 76% 30.34 in 10.0 mi WNW 3.5 mph - N/A   Clear
8:35 AM 55.4 °F - 44.6 °F 67% 30.35 in 10.0 mi WNW 5.8 mph - N/A   Clear
8:55 AM 55.4 °F - 44.6 °F 67% 30.35 in 10.0 mi WNW 5.8 mph - N/A   Clear
9:15 AM 59.0 °F - 44.6 °F 59% 30.35 in 10.0 mi Calm Calm - N/A   Clear
9:35 AM 60.8 °F - 44.6 °F 55% 30.35 in 10.0 mi Calm Calm - N/A   Clear
9:55 AM 62.6 °F - 44.6 °F 52% 30.35 in 10.0 mi Calm Calm - N/A   Clear
10:15 AM 62.6 °F - 46.4 °F 55% 30.35 in 10.0 mi South 4.6 mph - N/A   Clear
10:35 AM 62.6 °F - 46.4 °F 55% 30.35 in 10.0 mi ESE 3.5 mph - N/A   Clear
10:55 AM 66.2 °F - 44.6 °F 46% 30.35 in 10.0 mi SE 3.5 mph - N/A   Clear
11:15 AM 68.0 °F - 44.6 °F 43% 30.35 in 10.0 mi ENE 4.6 mph - N/A   Clear
11:35 AM 71.6 °F - 44.6 °F 38% 30.35 in 10.0 mi East 4.6 mph - N/A   Clear
11:55 AM 69.8 °F - 44.6 °F 40% 30.34 in 10.0 mi WNW 6.9 mph - N/A   Clear
12:15 PM 69.8 °F - 42.8 °F 38% 30.34 in 10.0 mi Calm Calm - N/A   Clear
12:35 PM 71.6 °F - 42.8 °F 35% 30.33 in 10.0 mi ESE 5.8 mph - N/A   Clear
12:55 PM 69.8 °F - 42.8 °F 38% 30.32 in 10.0 mi West 4.6 mph - N/A   Clear
1:15 PM 71.6 °F - 42.8 °F 35% 30.32 in 10.0 mi Calm Calm - N/A   Mostly Cloudy
1:35 PM 71.6 °F - 42.8 °F 35% 30.31 in 10.0 mi ENE 4.6 mph - N/A   Mostly Cloudy
1:55 PM 71.6 °F - 42.8 °F 35% 30.31 in 10.0 mi SSE 3.5 mph - N/A   Mostly Cloudy
2:15 PM 71.6 °F - 41.0 °F 33% 30.31 in 10.0 mi Calm Calm - N/A   Overcast
2:35 PM 71.6 °F - 41.0 °F 33% 30.31 in 10.0 mi Calm Calm - N/A   Mostly Cloudy
2:55 PM 73.4 °F - 41.0 °F 31% 30.30 in 10.0 mi South 6.9 mph - N/A   Scattered Clouds
3:15 PM 71.6 °F - 39.2 °F 31% 30.29 in 10.0 mi SSW 8.1 mph - N/A   Scattered Clouds
3:35 PM 71.6 °F - 41.0 °F 33% 30.29 in 10.0 mi SW 15.0 mph 19.6 mph N/A   Mostly Cloudy
3:55 PM 68.0 °F - 44.6 °F 43% 30.30 in 10.0 mi South 15.0 mph 23.0 mph N/A   Mostly Cloudy
4:15 PM 68.0 °F - 39.2 °F 35% 30.29 in 10.0 mi SSW 11.5 mph 19.6 mph N/A   Overcast
4:35 PM 69.8 °F - 39.2 °F 33% 30.29 in 10.0 mi SW 4.6 mph - N/A Thunderstorm Mostly Cloudy
4:55 PM 69.8 °F - 41.0 °F 35% 30.29 in 10.0 mi South 5.8 mph - N/A   Overcast
5:15 PM 69.8 °F - 41.0 °F 35% 30.30 in 10.0 mi South 8.1 mph - N/A   Overcast
5:35 PM 69.8 °F - 41.0 °F 35% 30.30 in 10.0 mi SSW 9.2 mph - N/A   Overcast
5:55 PM 69.8 °F - 42.8 °F 38% 30.31 in 10.0 mi SW 9.2 mph 17.3 mph N/A   Overcast
6:15 PM 68.0 °F - 41.0 °F 37% 30.31 in 10.0 mi WSW 10.4 mph - N/A   Overcast
6:35 PM 60.8 °F - 50.0 °F 68% 30.31 in 10.0 mi NNW 15.0 mph 25.3 mph N/A Rain Light Rain
6:55 PM 60.8 °F - 50.0 °F 68% 30.32 in 10.0 mi NW 12.7 mph - N/A   Light Drizzle
7:15 PM 60.8 °F - 48.2 °F 63% 30.31 in 10.0 mi NNW 9.2 mph - N/A   Overcast
7:35 PM 60.8 °F - 48.2 °F 63% 30.30 in 10.0 mi SW 6.9 mph - N/A   Overcast
7:55 PM 60.8 °F - 48.2 °F 63% 30.30 in 10.0 mi SW 3.5 mph - N/A   Overcast
8:15 PM 59.0 °F - 48.2 °F 67% 30.30 in 10.0 mi WSW 3.5 mph - N/A   Mostly Cloudy
8:35 PM 59.0 °F - 46.4 °F 63% 30.31 in 10.0 mi West 3.5 mph - N/A   Scattered Clouds
8:55 PM 59.0 °F - 46.4 °F 63% 30.31 in 10.0 mi WNW 4.6 mph - N/A   Clear
9:15 PM 59.0 °F - 46.4 °F 63% 30.31 in 10.0 mi Calm Calm - N/A   Scattered Clouds
9:35 PM 59.0 °F - 46.4 °F 63% 30.32 in 10.0 mi Calm Calm - N/A   Clear
9:55 PM 55.4 °F - 46.4 °F 72% 30.32 in 10.0 mi Calm Calm - N/A   Clear
10:15 PM 55.4 °F - 48.2 °F 77% 30.31 in 10.0 mi NW 3.5 mph - N/A   Clear
10:35 PM 53.6 °F - 46.4 °F 77% 30.31 in 10.0 mi WSW 4.6 mph - N/A   Scattered Clouds
10:55 PM 51.8 °F - 46.4 °F 82% 30.32 in 10.0 mi West 6.9 mph - N/A   Scattered Clouds
11:15 PM 51.8 °F - 46.4 °F 82% 30.31 in 10.0 mi West 3.5 mph - N/A   Scattered Clouds
11:35 PM 51.8 °F - 48.2 °F 88% 30.31 in 10.0 mi West 5.8 mph - N/A   Scattered Clouds
11:55 PM 51.8 °F - 48.2 °F 88% 30.31 in 10.0 mi NW 5.8 mph - N/A   Clear